Dewpoint
0 -1 -3 -2 -3 3 10 13 14 14 10 10 10 10 11 10 10 10 9 8 5 1 -1 -2 -2 1 4 5 6 7 8 8 7 7 7 8 8 8 8 8 7 7 6
2 0 -1 -2 -0 7 13 14 14 15 11 10 10 10 9 9 7 7 7 5 4 2 0 -1 -2 -3 2 4 4 4 4 5 6 6 7 7 7 7 7 7 6 6 5
7 6 6 9 11 12 13 13 13 14 13 12 10 9 9 9 9 8 8 7 5 4 2 2 1 -1 -2 -1 1 2 2 3 5 6 7 7 6 6 5 6 6 6 5
8 8 9 10 11 12 13 12 12 12 11 11 10 9 8 8 9 8 6 6 6 4 4 4 4 4 1 -1 -1 -1 -0 1 2 4 5 5 5 5 4 5 5 5 5
7 8 9 10 10 11 12 12 11 11 10 7 6 7 6 5 4 5 5 4 3 2 4 4 3 3 2 -1 -3 -2 -2 -3 -1 1 2 5 5 5 4 4 3 4 4
7 8 9 9 10 11 11 10 10 9 6 4 2 2 3 2 3 0 -0 1 2 4 4 4 2 2 1 -2 -5 -6 -4 -3 -4 -3 1 2 5 5 4 3 3 3 3
2 4 6 7 8 9 10 10 7 5 3 3 2 2 3 1 2 3 3 3 3 4 4 4 3 3 2 2 0 -3 -5 -5 -4 -3 -1 0 1 5 4 4 3 2 2
-1 -1 -2 -2 -0 3 5 5 4 2 -2 -1 1 3 3 3 4 4 4 4 4 4 4 4 3 3 2 1 1 1 0 -3 -3 -3 -3 -0 1 1 4 4 4 2 1
0 0 0 -1 -2 -1 -0 -1 -2 -4 -5 -3 -1 1 4 4 5 5 5 5 5 4 4 2 1 3 2 1 1 1 0 -0 -3 -3 -2 -1 -1 1 0 1 3 3 1
-0 -0 -0 0 0 -1 -1 -2 -4 -4 -5 -4 -3 -2 -1 1 3 4 5 5 5 4 3 3 1 3 3 2 1 1 0 -0 -1 -3 -3 -2 -2 -1 -1 -1 -0 1 2
-2 -6 -8 -4 -2 -3 -6 -5 -6 -5 -5 -6 -5 -4 -1 1 1 2 3 3 4 3 3 3 2 2 2 2 1 1 1 -0 -1 -2 -3 -4 -4 -5 -6 -5 -3 -1 1
-6 -7 -6 -6 -7 -7 -6 -5 -3 -1 1 2 -2 -2 -1 -1 -1 -3 -2 -0 2 3 3 3 2 1 1 1 1 1 1 1 0 -2 -3 -5 -6 -9 -13 -15 -11 -3 -1
-6 -6 -6 -7 -10 -11 -10 -9 -0 1 3 2 -0 -5 -6 -4 -4 -4 -4 -3 -2 -0 2 1 1 0 0 1 1 1 1 1 -0 -1 -1 -6 -9 -11 -15 -17 -17 -14 -14
-5 -9 -11 -10 -10 -10 -9 -9 0 1 2 -0 -5 -6 -6 -5 -4 -4 -3 -3 -3 -2 -2 -1 1 1 2 2 1 1 1 1 -0 -1 -1 -5 -8 -10 -12 -11 -3 -3 -7
-10 -10 -10 -10 -12 -11 -9 -8 0 1 -1 -5 -6 -7 -8 -6 -5 -3 -2 -2 -1 -1 -0 -1 -1 0 0 1 0 1 0 -0 -1 -1 -2 -3 -7 -9 -9 -4 -2 -2 -5
-11 -11 -12 -13 -13 -9 -6 -0 2 -1 -3 -4 -4 -4 -4 -4 -3 -1 -0 -1 -1 -0 -1 -0 -1 -1 0 1 0 -0 -1 -2 -2 -2 -4 -6 -8 -9 -7 -4 -4 -4 -6
-12 -9 -8 -7 -4 -2 -0 1 0 0 -0 -1 -2 -3 -4 -3 -3 -2 -2 -3 -3 -1 -1 -1 -0 -1 -2 -2 -1 -2 -2 -3 -3 -4 -5 -6 -6 -6 -5 -5 -5 -7 -11
-5 -4 -2 0 1 1 1 1 1 -0 -3 -5 -6 -6 -5 -5 -3 -2 -3 -4 -2 -2 -1 -2 -2 -3 -2 -2 -2 -3 -3 -4 -4 -5 -6 -6 -6 -6 -5 -6 -6 -6 -8
-2 -1 -1 -2 -2 -3 -4 -5 -5 -6 -6 -5 -5 -5 -6 -6 -6 -4 -4 -2 -2 -3 -2 -1 -2 -3 -3 -3 -3 -4 -5 -5 -6 -6 -6 -6 -7 -7 -8 -16 -18 -13 -15
-4 -2 -2 -1 -2 -3 -4 -4 -5 -5 -6 -7 -8 -7 -7 -7 -5 -3 -2 -3 -3 -3 -3 -3 -4 -4 -4 -4 -5 -5 -6 -6 -6 -6 -7 -8 -8 -10 -25 -29 -20 -18 -20
-2 -2 -2 -4 -5 -6 -6 -4 -4 -4 -6 -7 -7 -6 -5 -5 -3 -3 -3 -3 -4 -4 -4 -4 -4 -5 -6 -6 -6 -6 -7 -7 -7 -8 -8 -10 -19 -19 -29 -27 -24 -26 -31
-2 -3 -3 -4 -4 -3 -2 -2 -2 -2 -4 -6 -6 -3 -4 -4 -4 -3 -3 -4 -5 -5 -5 -5 -5 -6 -6 -7 -7 -7 -8 -8 -8 -9 -9 -9 -10 -12 -20 -31 -31 -29 -32
-5 -4 -3 -2 -2 -1 -3 -2 -1 -1 -3 -5 -4 -3 -3 -4 -4 -4 -4 -4 -5 -5 -5 -6 -6 -7 -7 -8 -8 -8 -8 -9 -9 -9 -9 -11 -11 -19 -29 -30 -29 -31 -31
-5 -6 -9 -11 -10 -7 -4 -2 -1 -1 -3 -4 -3 -3 -3 -3 -5 -5 -5 -5 -6 -6 -6 -7 -7 -7 -8 -9 -9 -9 -9 -9 -9 -10 -11 -11 -17 -26 -29 -30 -31 -31 -29
-8 -11 -12 -11 -11 -10 -6 -2 -1 -2 -3 -3 -3 -4 -4 -5 -5 -5 -5 -6 -6 -7 -7 -7 -7 -8 -9 -9 -9 -10 -10 -10 -10 -10 -11 -13 -21 -23 -22 -25 -27 -27 -27
-11 -10 -10 -9 -9 -7 -3 -1 -2 -2 -3 -3 -4 -4 -4 -4 -5 -6 -6 -7 -7 -8 -8 -8 -9 -9 -9 -10 -10 -10 -10 -10 -11 -16 -17 -17 -19 -20 -19 -20 -24 -24 -24
Wind_Speed
15 13 11 10 11 13 17 20 18 23 18 16 11 8 10 5 4 11 10 12 14 14 13 12 10 10 10 11 10 10 9 11 13 14 14 14 16 16 16 16 13 12 12
17 15 12 8 8 10 10 11 16 24 20 15 14 10 10 6 6 5 6 9 10 13 12 13 12 13 13 13 14 13 12 13 16 17 17 13 13 16 16 14 14 13 12
18 16 14 10 6 5 6 9 15 20 17 14 12 9 4 2 6 7 1 4 8 11 11 12 12 11 12 13 14 14 13 14 17 21 15 8 9 18 13 15 16 16 14
16 15 14 12 9 6 2 5 8 15 15 13 8 3 2 1 7 9 10 9 11 10 11 9 10 11 13 13 13 13 14 15 19 24 26 20 13 13 13 18 19 20 18
16 16 16 15 12 11 8 4 5 15 14 14 13 11 10 7 1 2 5 9 12 11 8 10 10 11 12 12 13 13 14 15 19 22 28 30 20 18 14 20 25 24 22
16 17 18 18 17 15 14 13 15 15 14 14 11 8 5 5 8 4 6 6 6 6 7 9 11 9 9 10 11 13 15 15 17 22 26 31 29 26 22 16 24 25 24
16 18 19 20 20 19 18 17 15 14 11 9 8 8 8 6 6 6 5 5 6 6 8 10 11 11 10 9 10 11 13 15 17 18 24 27 30 32 25 24 21 25 25
14 15 16 16 16 16 15 13 11 9 6 3 3 4 5 6 8 7 6 7 8 8 10 11 12 11 9 10 10 12 13 13 15 17 20 23 26 27 31 29 27 16 22
9 9 8 9 11 10 9 8 7 4 2 3 3 5 7 8 8 9 9 9 10 9 10 11 12 12 12 12 11 14 16 16 15 16 18 19 22 25 27 28 28 28 18
7 6 4 4 7 7 7 7 7 7 7 6 5 6 8 10 11 12 12 11 11 11 14 14 13 15 16 16 15 14 14 14 15 16 17 18 19 20 22 24 26 27 26
9 6 2 3 6 6 8 10 11 12 12 11 9 8 11 12 12 12 12 13 13 13 14 14 15 15 15 17 18 18 18 17 16 15 16 17 18 18 18 18 20 23 25
13 3 3 5 8 11 15 18 18 18 17 15 12 11 11 12 12 13 14 15 14 14 14 14 14 14 16 18 17 18 18 18 17 16 15 16 16 16 16 16 17 20 22
7 7 11 15 20 23 20 22 23 20 18 15 15 13 12 12 13 13 13 14 13 13 15 14 12 13 15 18 18 18 18 16 17 18 16 15 15 14 14 14 13 12 14
10 15 18 21 20 22 19 19 20 18 16 15 13 11 12 12 13 14 14 16 16 16 16 16 16 14 15 16 18 18 21 19 18 19 17 16 17 17 16 16 16 15 14
14 14 13 15 16 18 18 18 19 20 18 15 12 12 14 15 16 17 18 17 17 17 17 15 13 12 12 14 15 18 21 15 16 17 17 18 19 18 17 16 17 17 14
14 11 14 17 18 16 12 13 16 15 12 11 12 14 17 20 20 20 18 18 18 17 14 11 10 11 11 11 14 18 21 15 15 15 16 16 16 16 18 18 17 16 9
12 13 14 14 11 8 9 13 13 14 14 15 16 18 21 21 22 21 20 19 14 10 9 8 9 8 11 11 15 15 14 13 13 14 15 16 16 17 17 17 15 12 11
12 10 8 6 5 6 8 10 10 12 15 17 18 18 19 17 17 17 17 13 9 7 7 6 6 10 12 11 12 13 12 11 12 12 14 16 18 19 19 16 15 14 12
10 9 7 6 7 8 10 12 11 11 13 15 15 15 15 15 14 14 13 10 9 7 9 7 8 8 9 9 10 9 9 10 11 13 15 17 16 14 9 8 11 14 16
10 9 8 8 9 10 10 13 12 12 12 12 11 12 14 15 13 10 8 7 7 8 7 7 7 8 9 9 8 7 8 9 11 12 12 10 9 9 8 9 10 11 10
12 10 9 8 8 9 10 13 12 13 12 12 11 10 10 11 8 5 7 7 7 8 7 6 7 7 7 7 7 7 8 9 9 8 8 8 6 5 5 9 9 8 8
12 12 12 10 11 13 13 15 15 13 13 13 11 9 8 7 7 6 7 8 6 5 5 6 6 6 6 7 6 7 8 7 5 6 7 6 5 5 8 10 10 8 9
14 14 13 12 13 15 15 17 16 15 12 12 11 10 9 7 5 6 7 5 4 5 5 6 6 7 7 7 5 5 8 7 6 7 6 4 6 9 10 10 10 9 10
14 11 10 11 13 15 17 17 15 14 13 12 10 9 9 7 5 6 5 5 4 4 6 6 6 6 7 6 5 6 7 7 7 8 8 5 6 11 10 10 10 10 11
12 12 13 13 14 14 16 16 14 13 13 9 7 8 8 7 7 7 7 6 6 6 5 5 5 5 6 5 4 4 4 4 6 8 8 7 12 13 11 11 11 11 12
16 16 16 16 15 16 15 15 13 14 12 9 9 10 9 9 10 9 7 6 5 6 6 5 5 6 6 6 7 6 4 6 6 9 10 10 11 12 11 9 10 11 12
Wind_Direction
1 358 345 306 271 256 257 260 250 238 243 228 214 184 204 217 324 321 340 338 329 324 321 314 308 292 278 262 251 246 245 243 231 226 198 205 210 210 208 208 208 213 206
359 359 0 341 278 250 253 259 238 225 224 217 161 156 154 148 230 335 359 353 341 331 324 318 315 305 278 269 265 258 244 235 226 208 203 175 187 191 196 200 209 214 230
13 13 22 22 350 299 259 234 227 219 197 166 157 151 112 215 223 226 256 343 3 337 322 309 304 301 290 279 267 261 246 232 224 220 206 191 203 195 206 210 217 216 218
44 40 44 44 39 16 337 266 220 183 145 126 133 163 240 55 261 256 295 307 337 332 316 307 304 301 295 285 274 264 252 239 229 223 221 221 215 188 199 209 210 216 222
64 63 64 63 63 61 60 75 145 138 121 116 108 107 109 96 40 221 255 244 254 257 269 307 316 314 298 289 281 270 259 245 237 231 228 223 227 219 207 205 210 213 217
68 68 71 74 78 83 88 93 112 123 121 123 132 151 224 164 188 221 239 238 250 261 289 311 324 319 307 301 287 276 268 258 247 237 236 233 228 226 223 217 210 216 217
84 80 81 84 88 96 106 117 124 128 133 152 176 182 182 187 216 231 243 260 267 285 297 311 316 320 328 322 311 297 283 273 263 252 244 240 239 242 241 236 221 209 216
95 96 97 95 96 103 113 123 129 141 148 174 203 221 228 230 233 240 253 266 275 284 288 307 313 305 305 316 313 311 303 290 276 266 257 249 247 245 244 242 237 217 217
121 116 121 127 123 133 137 141 151 177 236 257 246 256 265 268 268 260 262 269 269 269 283 304 307 295 285 287 296 307 308 306 297 280 268 259 254 252 248 244 242 238 214
145 141 143 170 179 173 177 198 208 219 221 219 235 261 272 273 272 276 280 280 278 279 289 293 303 300 292 291 293 295 294 294 295 290 279 270 261 253 248 243 240 237 234
156 127 87 269 245 243 252 257 245 238 228 228 234 256 267 270 270 273 273 273 270 270 273 277 285 294 295 293 294 299 298 295 294 291 283 273 265 259 253 245 236 229 229
167 165 331 305 287 284 277 272 259 248 240 248 257 265 271 268 266 269 271 274 271 270 268 272 275 275 282 285 283 284 286 290 294 289 284 275 267 258 248 236 229 224 226
209 270 292 292 289 290 290 277 265 254 245 245 261 271 274 272 277 281 278 281 279 274 270 272 272 274 274 275 273 278 283 275 279 279 275 268 263 253 237 223 206 212 224
251 265 277 293 299 296 287 275 258 248 242 250 262 278 285 288 290 291 290 291 282 278 274 269 262 265 272 270 275 279 278 269 276 277 265 255 254 248 238 231 234 234 227
262 273 283 285 290 289 281 262 244 237 238 247 264 274 282 288 291 295 297 295 288 281 278 272 266 269 272 264 276 273 269 276 272 273 265 252 252 252 249 255 259 248 225
257 272 280 284 284 283 267 239 230 232 243 263 276 290 294 291 291 294 294 294 292 285 281 272 265 269 271 270 275 268 257 259 265 265 259 253 253 260 270 274 264 242 214
259 261 264 269 273 264 232 220 228 241 256 271 282 285 289 286 287 287 290 297 296 281 281 276 269 270 283 283 286 264 253 256 263 259 252 253 259 263 273 268 247 207 218
236 243 249 258 264 252 234 228 242 268 282 289 288 287 284 282 280 284 291 298 286 278 270 270 271 280 280 273 265 254 256 256 255 250 254 259 265 265 260 249 231 219 216
214 220 228 242 256 273 292 292 291 288 288 287 287 285 286 288 288 290 301 303 286 276 270 256 278 282 271 258 258 257 253 251 250 257 262 265 263 254 219 216 221 217 222
213 232 252 270 282 292 300 299 304 302 300 294 291 291 294 296 295 298 285 281 283 276 264 262 259 248 249 248 249 252 252 251 255 258 260 254 227 181 216 201 200 208 207
230 247 266 268 279 289 295 292 299 301 302 301 303 298 305 306 305 279 275 267 255 251 242 224 235 236 235 244 240 235 247 257 253 246 231 195 184 192 189 171 176 182 177
234 246 257 266 279 284 287 291 293 293 295 297 295 272 281 303 319 276 255 245 221 214 226 232 228 217 215 225 225 230 227 222 224 195 172 172 189 205 196 187 179 170 170
226 236 249 264 275 278 287 291 290 289 291 292 280 265 252 253 270 248 239 225 229 234 232 222 209 199 197 216 222 210 197 203 196 186 177 187 209 192 183 182 172 167 165
226 230 250 266 276 288 291 288 282 285 291 293 279 266 248 238 228 224 219 212 230 227 216 203 199 197 201 209 202 194 193 205 208 197 167 197 176 176 177 171 165 161 162
239 249 259 273 284 290 287 279 278 279 284 279 262 247 234 233 219 210 207 204 201 187 186 194 201 205 209 198 168 160 177 173 187 185 181 181 173 176 173 169 168 168 167
257 260 263 273 282 282 276 267 267 270 271 248 234 225 228 228 213 207 206 196 180 182 191 192 190 195 195 190 181 179 164 143 144 171 192 184 177 184 179 172 172 173 171
Height
1500 1498 1496 1495 1494 1495 1497 1501 1508 1512 1516 1518 1524 1526 1530 1530 1529 1536 1539 1540 1543 1545 1545 1547 1546 1548 1548 1548 1547 1547 1548 1550 1552 1554 1555 1556 1557 1558 1557 1558 1559 1560 1561
1499 1496 1494 1493 1491 1492 1495 1501 1505 1510 1513 1519 1521 1525 1526 1528 1527 1535 1534 1539 1540 1543 1545 1545 1545 1544 1547 1546 1545 1544 1544 1546 1548 1551 1553 1554 1557 1555 1556 1556 1557 1558 1560
1499 1497 1494 1494 1494 1495 1496 1499 1502 1506 1512 1516 1521 1525 1526 1526 1526 1531 1533 1536 1538 1540 1542 1545 1543 1543 1543 1543 1542 1542 1541 1541 1544 1546 1549 1551 1550 1551 1553 1554 1554 1556 1557
1500 1498 1496 1496 1496 1498 1501 1503 1505 1508 1513 1517 1519 1521 1524 1525 1531 1532 1531 1532 1535 1539 1540 1541 1540 1537 1538 1538 1538 1537 1538 1539 1540 1540 1542 1544 1544 1546 1549 1550 1551 1551 1553
1501 1499 1498 1498 1499 1500 1501 1504 1507 1511 1514 1516 1519 1521 1522 1526 1532 1530 1530 1531 1532 1534 1537 1539 1536 1534 1533 1533 1534 1534 1534 1534 1536 1538 1537 1537 1539 1541 1540 1541 1545 1546 1547
1505 1503 1502 1502 1502 1502 1504 1506 1510 1515 1516 1518 1519 1520 1519 1521 1524 1526 1527 1526 1528 1531 1533 1533 1532 1530 1530 1530 1530 1530 1531 1530 1530 1532 1534 1534 1534 1534 1538 1537 1539 1541 1541
1506 1506 1506 1506 1506 1507 1508 1511 1512 1514 1517 1518 1520 1522 1522 1523 1525 1525 1524 1525 1526 1527 1528 1530 1529 1528 1527 1527 1527 1528 1527 1526 1526 1526 1529 1529 1529 1531 1532 1535 1534 1533 1535
1509 1508 1509 1510 1509 1509 1511 1514 1515 1516 1517 1519 1520 1521 1523 1523 1523 1523 1523 1522 1523 1524 1525 1525 1525 1525 1525 1525 1525 1524 1524 1522 1521 1521 1524 1523 1525 1527 1528 1528 1531 1532 1533
1508 1509 1511 1511 1509 1511 1512 1514 1514 1516 1517 1517 1517 1518 1520 1521 1521 1520 1519 1519 1519 1520 1520 1520 1520 1521 1521 1521 1521 1520 1520 1519 1518 1517 1519 1518 1519 1521 1523 1523 1525 1527 1525
1506 1507 1510 1511 1511 1510 1511 1512 1512 1513 1514 1514 1514 1515 1516 1517 1517 1518 1517 1517 1516 1516 1516 1516 1516 1515 1516 1516 1516 1516 1516 1515 1514 1513 1513 1514 1514 1515 1517 1517 1518 1521 1522
1502 1504 1507 1509 1509 1509 1508 1509 1509 1510 1510 1510 1509 1509 1511 1513 1513 1513 1513 1513 1512 1511 1511 1511 1511 1511 1511 1512 1512 1512 1513 1513 1511 1509 1509 1508 1509 1510 1513 1514 1514 1515 1516
1499 1501 1503 1505 1506 1506 1506 1506 1507 1507 1507 1509 1508 1507 1506 1508 1509 1509 1509 1509 1507 1506 1506 1505 1506 1506 1506 1507 1508 1509 1509 1508 1507 1506 1505 1506 1507 1506 1508 1509 1510 1512 1513
1496 1497 1499 1499 1500 1500 1502 1502 1502 1503 1505 1506 1506 1505 1504 1505 1505 1506 1505 1504 1502 1502 1502 1501 1501 1501 1500 1501 1502 1503 1504 1503 1503 1502 1502 1503 1504 1505 1505 1506 1507 1508 1510
1491 1493 1492 1493 1493 1494 1495 1495 1496 1497 1499 1501 1502 1502 1502 1500 1502 1502 1502 1500 1498 1497 1497 1497 1496 1496 1496 1496 1497 1498 1498 1499 1500 1500 1499 1499 1500 1501 1502 1503 1503 1504 1506
1485 1486 1485 1486 1486 1487 1487 1488 1490 1492 1494 1495 1495 1496 1497 1496 1495 1496 1496 1496 1494 1493 1493 1491 1490 1490 1491 1492 1492 1493 1492 1494 1495 1495 1496 1495 1497 1498 1499 1499 1499 1500 1500
1479 1479 1480 1480 1481 1481 1481 1483 1486 1489 1490 1492 1492 1492 1493 1492 1491 1490 1488 1488 1487 1487 1487 1485 1484 1485 1486 1487 1488 1488 1488 1490 1491 1491 1492 1492 1493 1494 1495 1495 1495 1495 1496
1473 1475 1476 1476 1476 1476 1476 1477 1480 1484 1485 1487 1487 1486 1489 1488 1487 1484 1482 1481 1480 1480 1481 1480 1481 1481 1482 1482 1483 1484 1485 1485 1487 1487 1489 1489 1490 1490 1491 1491 1491 1490 1493
1471 1473 1475 1475 1475 1476 1476 1473 1474 1478 1480 1481 1482 1482 1482 1481 1480 1479 1476 1475 1475 1476 1477 1477 1477 1478 1478 1479 1480 1481 1481 1482 1482 1483 1484 1486 1485 1485 1485 1486 1487 1488 1489
1471 1472 1473 1473 1474 1475 1478 1478 1473 1469 1473 1477 1476 1476 1476 1475 1475 1473 1470 1471 1471 1471 1472 1473 1473 1474 1474 1476 1477 1478 1478 1479 1479 1480 1480 1481 1480 1481 1481 1482 1484 1485 1486
1469 1470 1470 1470 1472 1472 1472 1478 1475 1472 1469 1470 1470 1471 1471 1470 1469 1467 1467 1467 1467 1468 1468 1469 1470 1471 1472 1473 1474 1475 1475 1476 1476 1476 1476 1477 1478 1478 1480 1480 1481 1483 1484
1464 1466 1466 1466 1468 1466 1466 1471 1467 1467 1468 1467 1465 1466 1467 1466 1465 1464 1464 1464 1464 1465 1466 1467 1467 1468 1469 1470 1471 1473 1473 1475 1475 1474 1474 1476 1477 1478 1479 1480 1481 1483 1483
1459 1463 1463 1463 1463 1464 1462 1464 1461 1458 1462 1463 1462 1463 1463 1463 1462 1461 1461 1461 1462 1463 1464 1465 1465 1466 1467 1468 1469 1470 1471 1472 1473 1473 1474 1475 1476 1478 1479 1480 1481 1483 1485
1453 1459 1461 1461 1460 1461 1459 1457 1457 1457 1454 1457 1458 1459 1459 1460 1459 1459 1458 1459 1460 1461 1462 1463 1464 1465 1466 1467 1467 1468 1470 1471 1472 1472 1473 1474 1476 1478 1479 1481 1482 1483 1485
1449 1453 1455 1456 1456 1456 1454 1453 1453 1452 1451 1452 1453 1454 1455 1457 1457 1456 1456 1458 1458 1459 1460 1461 1462 1463 1464 1466 1467 1467 1469 1470 1471 1471 1473 1474 1476 1478 1479 1481 1482 1484 1486
1447 1448 1449 1451 1451 1450 1448 1450 1449 1449 1448 1448 1450 1451 1453 1454 1454 1454 1455 1455 1456 1457 1458 1459 1460 1461 1463 1465 1467 1467 1468 1468 1469 1471 1473 1475 1477 1479 1481 1482 1483 1485 1487
1442 1444 1445 1445 1445 1445 1443 1444 1445 1445 1443 1444 1446 1448 1449 1450 1451 1452 1453 1454 1455 1455 1457 1458 1459 1460 1462 1464 1466 1467 1468 1468 1470 1471 1473 1475 1478 1480 1481 1483 1484 1486 1488